Location: Evensen
(52.5775°N, 9.5258°E)
Time: 13:07:02
(UTC+00:00)

USA 290 - Pass Details

Date: 15 May 2026
Orbit: 396 x 415 km, 73.6° (Epoch: 30 October)

Event Time Altitude Azimuth Distance (km) Brightness Sun altitude
Exits shadow 21:18:07 17° 200° (SSW) 1,066 3.9 -13.8°
Maximum altitude 21:20:21 80° 116° (ESE) 404 2.0 -14.0°
Drops below altitude 10° 21:23:30 10° 28° (NNE) 1,436 5.4 -14.2°
Sets 21:25:32 0° 27° (NNE) 2,296 6.5 -14.3°
